THY36 LTAI-LTFM

Flight info

Callsign THY36
Flight time N/A
Altitude 38000
Route EKSEN UM855 SISPI
Aircraft B77W/H-SDE2E3FGHIJ5LORVWXY/AA6BA4

Departure

Time N/A
Airport Antalya International Airport (LTAI)

Arrival

Time 2026-05-05 23:24
Airport İstanbul Airport (LTFM)
Time Latitude Longitude Altitude Speed Heading
2026-05-05 22:32 37.95598 30.66166 27976 ft 452 kts 352°
2026-05-05 22:33 37.98780 30.65677 28552 ft 455 kts 352°
2026-05-05 22:33 38.01934 30.65237 29093 ft 458 kts 353°
2026-05-05 22:33 38.05130 30.64809 29691 ft 460 kts 353°
2026-05-05 22:33 38.08341 30.64383 30456 ft 457 kts 353°
2026-05-05 22:34 38.11499 30.63966 31238 ft 452 kts 353°
2026-05-05 22:34 38.14615 30.63554 31986 ft 448 kts 353°
2026-05-05 22:34 38.17691 30.63148 32625 ft 446 kts 352°
2026-05-05 22:34 38.20766 30.62742 33166 ft 446 kts 352°
2026-05-05 22:35 38.23838 30.62336 33687 ft 446 kts 352°
2026-05-05 22:35 38.26920 30.61930 34249 ft 444 kts 352°
2026-05-05 22:35 38.29980 30.61524 34800 ft 442 kts 352°
2026-05-05 22:35 38.33043 30.61111 35280 ft 442 kts 352°
2026-05-05 22:36 38.36128 30.60694 35675 ft 443 kts 352°
2026-05-05 22:36 38.39242 30.60273 36038 ft 444 kts 352°
2026-05-05 22:36 38.42347 30.59853 36460 ft 444 kts 352°
2026-05-05 22:36 38.45423 30.59437 36913 ft 443 kts 352°
2026-05-05 22:37 38.48471 30.59025 37354 ft 442 kts 352°
2026-05-05 22:37 38.51551 30.58608 37729 ft 442 kts 352°
2026-05-05 22:37 38.54604 30.58194 38000 ft 444 kts 352°
2026-05-05 22:38 38.60782 30.57355 38034 ft 446 kts 352°
2026-05-05 22:38 38.66913 30.56523 38035 ft 445 kts 352°
2026-05-05 22:39 38.73079 30.55683 38035 ft 445 kts 352°
2026-05-05 22:39 38.79204 30.54634 38032 ft 443 kts 345°
2026-05-05 22:40 38.84906 30.51821 38034 ft 440 kts 333°
2026-05-05 22:40 38.90369 30.48334 38032 ft 440 kts 333°
2026-05-05 22:41 38.95842 30.44829 38031 ft 440 kts 333°
2026-05-05 22:41 39.01350 30.41297 38040 ft 441 kts 333°
2026-05-05 22:42 39.06832 30.37776 38043 ft 441 kts 333°
2026-05-05 22:42 39.12329 30.34240 38041 ft 441 kts 332°
2026-05-05 22:43 39.17826 30.30697 38054 ft 441 kts 332°
2026-05-05 22:43 39.23301 30.27168 38036 ft 439 kts 332°
2026-05-05 22:44 39.28764 30.23634 38042 ft 440 kts 332°
2026-05-05 22:44 39.34196 30.20114 38040 ft 439 kts 332°
2026-05-05 22:45 39.39664 30.16564 38042 ft 439 kts 333°
2026-05-05 22:45 39.45101 30.13030 38041 ft 439 kts 333°
2026-05-05 22:45 39.47835 30.11308 37852 ft 433 kts 335°
2026-05-05 22:46 39.50613 30.09769 37059 ft 435 kts 336°
2026-05-05 22:46 39.53379 30.08261 36273 ft 436 kts 337°
2026-05-05 22:46 39.56174 30.06728 35603 ft 437 kts 337°
2026-05-05 22:46 39.58978 30.05182 34878 ft 442 kts 337°
2026-05-05 22:47 39.61795 30.03621 33965 ft 447 kts 337°
2026-05-05 22:47 39.64629 30.02047 32849 ft 441 kts 338°
2026-05-05 22:47 39.67403 30.00502 32162 ft 426 kts 338°
2026-05-05 22:47 39.70072 29.99013 31692 ft 408 kts 338°
2026-05-05 22:48 39.72624 29.97586 31317 ft 390 kts 338°
2026-05-05 22:48 39.75052 29.96228 30954 ft 374 kts 338°
2026-05-05 22:48 39.77412 29.94906 30412 ft 365 kts 338°
2026-05-05 22:48 39.79750 29.93595 29853 ft 363 kts 338°
2026-05-05 22:49 39.82065 29.92295 29288 ft 364 kts 338°
2026-05-05 22:49 39.84372 29.90998 28812 ft 361 kts 338°
2026-05-05 22:49 39.86676 29.89702 28400 ft 358 kts 338°
2026-05-05 22:49 39.88954 29.88440 27967 ft 354 kts 341°
2026-05-05 22:50 39.91265 29.87523 27506 ft 351 kts 348°
2026-05-05 22:50 39.93695 29.87038 27011 ft 349 kts 356°
2026-05-05 22:50 39.96107 29.86963 26551 ft 347 kts
2026-05-05 22:50 39.98509 29.86970 26115 ft 344 kts
2026-05-05 22:51 40.00895 29.86976 25692 ft 341 kts
2026-05-05 22:51 40.03260 29.86977 25244 ft 339 kts
2026-05-05 22:51 40.05608 29.86976 24795 ft 337 kts
2026-05-05 22:51 40.07957 29.86973 24409 ft 333 kts
2026-05-05 22:52 40.10241 29.86970 24365 ft 331 kts
2026-05-05 22:52 40.12598 29.86966 24364 ft 336 kts
2026-05-05 22:52 40.14908 29.86962 24365 ft 335 kts
2026-05-05 22:52 40.17247 29.86959 24366 ft 335 kts
2026-05-05 22:53 40.19603 29.86955 24368 ft 335 kts
2026-05-05 22:53 40.21945 29.86951 24106 ft 339 kts
2026-05-05 22:53 40.24289 29.86946 23719 ft 338 kts
2026-05-05 22:53 40.26618 29.86942 23387 ft 333 kts
2026-05-05 22:54 40.28910 29.86938 23083 ft 328 kts
2026-05-05 22:54 40.31183 29.86934 22787 ft 324 kts
2026-05-05 22:54 40.33452 29.86930 22488 ft 326 kts 360°
2026-05-05 22:54 40.35716 29.86930 22183 ft 327 kts
2026-05-05 22:55 40.38006 29.86925 21882 ft 325 kts 360°
2026-05-05 22:55 40.40220 29.87119 21578 ft 323 kts 11°
2026-05-05 22:55 40.42329 29.88124 21274 ft 323 kts 27°
2026-05-05 22:55 40.44233 29.89703 20982 ft 324 kts 32°
2026-05-05 22:56 40.46076 29.91357 20685 ft 323 kts 32°
2026-05-05 22:56 40.47926 29.93048 20384 ft 322 kts 33°
2026-05-05 22:56 40.49762 29.94731 20085 ft 320 kts 32°
2026-05-05 22:56 40.51654 29.96188 19785 ft 315 kts 19°
2026-05-05 22:57 40.53766 29.96798 19493 ft 313 kts
2026-05-05 22:57 40.55952 29.96901 19216 ft 313 kts
2026-05-05 22:57 40.58109 29.96922 18933 ft 311 kts 359°
2026-05-05 22:57 40.60255 29.96923 18646 ft 309 kts 359°
2026-05-05 22:58 40.62408 29.96922 18363 ft 307 kts 359°
2026-05-05 22:58 40.64554 29.96921 18091 ft 305 kts 359°
2026-05-05 22:58 40.66666 29.96901 17817 ft 304 kts 355°
2026-05-05 22:58 40.68715 29.96326 17539 ft 304 kts 343°
2026-05-05 22:59 40.70717 29.95443 17247 ft 304 kts 341°
2026-05-05 22:59 40.72708 29.94521 16968 ft 303 kts 341°
2026-05-05 22:59 40.74716 29.93588 16694 ft 302 kts 341°
2026-05-05 22:59 40.76697 29.92672 16377 ft 301 kts 341°
2026-05-05 23:00 40.80616 29.90860 15794 ft 298 kts 342°
2026-05-05 23:00 40.82584 29.89950 15517 ft 297 kts 342°
2026-05-05 23:00 40.84461 29.88786 15227 ft 297 kts 325°
2026-05-05 23:01 40.85856 29.86748 15073 ft 299 kts 302°
2026-05-05 23:01 40.86522 29.84232 15051 ft 292 kts 282°
2026-05-05 23:01 40.86723 29.81585 15008 ft 281 kts 279°
2026-05-05 23:01 40.86871 29.79053 14868 ft 274 kts 279°
2026-05-05 23:02 40.87014 29.76589 14629 ft 270 kts 279°
2026-05-05 23:02 40.87156 29.74120 14317 ft 270 kts 279°
2026-05-05 23:02 40.87300 29.71623 14003 ft 270 kts 279°
2026-05-05 23:02 40.87442 29.69147 13712 ft 270 kts 279°
2026-05-05 23:03 40.87582 29.66700 13426 ft 269 kts 279°
2026-05-05 23:03 40.87722 29.64231 13145 ft 267 kts 279°
2026-05-05 23:03 40.87859 29.61819 12877 ft 265 kts 279°
2026-05-05 23:03 40.87997 29.59373 12603 ft 264 kts 279°
2026-05-05 23:04 40.88133 29.56970 12316 ft 263 kts 279°
2026-05-05 23:04 40.88267 29.54579 12006 ft 261 kts 279°
2026-05-05 23:04 40.88400 29.52188 11580 ft 259 kts 279°
2026-05-05 23:04 40.88532 29.49823 11090 ft 259 kts 279°
2026-05-05 23:05 40.88662 29.47465 10680 ft 255 kts 279°
2026-05-05 23:05 40.88792 29.45122 10262 ft 253 kts 279°
2026-05-05 23:05 40.88917 29.42849 9863 ft 250 kts 279°
2026-05-05 23:05 40.89042 29.40568 9458 ft 248 kts 279°
2026-05-05 23:06 40.89166 29.38303 9028 ft 247 kts 278°
2026-05-05 23:06 40.89291 29.36032 8584 ft 246 kts 278°
2026-05-05 23:06 40.89413 29.33792 8164 ft 245 kts 277°
2026-05-05 23:06 40.89536 29.31526 7637 ft 248 kts 277°
2026-05-05 23:07 40.89657 29.29281 7276 ft 244 kts 277°
2026-05-05 23:07 40.89777 29.27062 6870 ft 242 kts 277°
2026-05-05 23:07 40.89896 29.24833 6432 ft 242 kts 276°
2026-05-05 23:07 40.90015 29.22615 6053 ft 241 kts 276°
2026-05-05 23:08 40.90131 29.20436 5861 ft 237 kts 276°
2026-05-05 23:08 40.90247 29.18255 5628 ft 236 kts 276°
2026-05-05 23:08 40.90360 29.16105 5404 ft 235 kts 276°
2026-05-05 23:08 40.90473 29.13959 5171 ft 234 kts 276°
2026-05-05 23:09 40.90584 29.11836 5108 ft 225 kts 277°
2026-05-05 23:09 40.90689 29.09805 5096 ft 214 kts 277°
2026-05-05 23:09 40.90788 29.07890 5076 ft 204 kts 277°
2026-05-05 23:09 40.90884 29.06044 4995 ft 201 kts 277°
2026-05-05 23:10 40.90982 29.04177 5000 ft 198 kts 277°
2026-05-05 23:10 40.91074 29.02401 4988 ft 184 kts 277°
2026-05-05 23:10 40.91045 29.00777 4979 ft 172 kts 261°
2026-05-05 23:10 40.90920 28.99303 4983 ft 155 kts 280°
2026-05-05 23:11 40.91029 28.97892 4987 ft 152 kts 280°
2026-05-05 23:11 40.91134 28.96515 4993 ft 146 kts 280°
2026-05-05 23:11 40.91235 28.95176 4984 ft 144 kts 281°
2026-05-05 23:11 40.91335 28.93860 4987 ft 144 kts 281°
2026-05-05 23:12 40.91436 28.92549 4986 ft 143 kts 281°
2026-05-05 23:12 40.91537 28.91221 4984 ft 143 kts 281°
2026-05-05 23:12 40.91637 28.89911 4984 ft 143 kts 281°
2026-05-05 23:12 40.91736 28.88610 4985 ft 143 kts 281°
2026-05-05 23:13 40.91945 28.87343 4978 ft 137 kts 308°
2026-05-05 23:13 40.92493 28.86308 4969 ft 140 kts 292°
2026-05-05 23:13 40.92566 28.85018 5001 ft 145 kts 276°
2026-05-05 23:13 40.92572 28.83687 4997 ft 146 kts 276°
2026-05-05 23:14 40.92577 28.82346 4993 ft 146 kts 275°
2026-05-05 23:14 40.92584 28.80981 5001 ft 159 kts 275°
2026-05-05 23:14 40.92603 28.79441 4988 ft 172 kts 280°
2026-05-05 23:14 40.92910 28.77923 4985 ft 171 kts 299°
2026-05-05 23:15 40.93594 28.76648 4981 ft 167 kts 318°
2026-05-05 23:15 40.94531 28.75754 4986 ft 166 kts 330°
2026-05-05 23:15 40.95538 28.75020 4989 ft 165 kts 332°
2026-05-05 23:15 40.96537 28.74231 4985 ft 165 kts 332°
2026-05-05 23:16 40.97575 28.73622 4986 ft 164 kts 345°
2026-05-05 23:16 40.98677 28.73367 4952 ft 153 kts 355°
2026-05-05 23:16 40.99696 28.73281 4969 ft 140 kts 358°
2026-05-05 23:16 41.00659 28.73247 4977 ft 134 kts 359°
2026-05-05 23:17 41.01587 28.73231 4980 ft 132 kts 360°
2026-05-05 23:17 41.02511 28.73221 4935 ft 134 kts
2026-05-05 23:17 41.03437 28.73210 4768 ft 131 kts
2026-05-05 23:17 41.04348 28.73197 4606 ft 130 kts
2026-05-05 23:18 41.05263 28.73183 4440 ft 130 kts
2026-05-05 23:18 41.06163 28.73166 4275 ft 128 kts
2026-05-05 23:18 41.07057 28.73150 4111 ft 128 kts 360°
2026-05-05 23:18 41.07946 28.73133 3945 ft 128 kts 360°
2026-05-05 23:19 41.08837 28.73116 3778 ft 128 kts 360°
2026-05-05 23:19 41.09721 28.73099 3609 ft 127 kts 360°
2026-05-05 23:19 41.10615 28.73081 3443 ft 127 kts 360°
2026-05-05 23:19 41.11495 28.73064 3278 ft 127 kts 360°
2026-05-05 23:20 41.12384 28.73047 3111 ft 128 kts 360°
2026-05-05 23:20 41.13278 28.73030 2940 ft 127 kts 360°
2026-05-05 23:20 41.14164 28.73012 2766 ft 128 kts 360°
2026-05-05 23:20 41.15056 28.72996 2592 ft 129 kts 360°
2026-05-05 23:21 41.15960 28.72977 2420 ft 129 kts 360°
2026-05-05 23:21 41.16869 28.72959 2235 ft 131 kts 360°
2026-05-05 23:21 41.17791 28.72942 2051 ft 132 kts 359°
2026-05-05 23:21 41.18714 28.72922 1869 ft 132 kts 360°
2026-05-05 23:22 41.19641 28.72906 1682 ft 132 kts 359°
2026-05-05 23:22 41.20556 28.72887 1502 ft 132 kts 359°
2026-05-05 23:22 41.21478 28.72886 1289 ft 133 kts
2026-05-05 23:22 41.22406 28.72902 1066 ft 132 kts
2026-05-05 23:23 41.23325 28.72889 858 ft 132 kts 357°
2026-05-05 23:23 41.24239 28.72837 689 ft 131 kts 357°
2026-05-05 23:23 41.25170 28.72775 519 ft 132 kts 359°
2026-05-05 23:23 41.26070 28.72746 389 ft 130 kts
2026-05-05 23:24 41.26911 28.72757 341 ft 101 kts
2026-05-05 23:24 41.27422 28.72761 341 ft 52 kts
2026-05-05 23:24 41.27632 28.72747 341 ft 21 kts 359°
2026-05-05 23:24 41.27784 28.72746 341 ft 22 kts
2026-05-05 23:25 41.27948 28.72774 341 ft 24 kts 14°
2026-05-05 23:25 41.28102 28.72870 341 ft 18 kts 38°
2026-05-05 23:25 41.28093 28.72960 341 ft 13 kts 159°
2026-05-05 23:25 41.27995 28.72969 341 ft 15 kts 180°
2026-05-05 23:26 41.27880 28.72969 341 ft 16 kts 179°
2026-05-05 23:26 41.27773 28.72971 341 ft 14 kts 180°
2026-05-05 23:26 41.27680 28.72972 341 ft 12 kts 179°
2026-05-05 23:26 41.27599 28.72975 341 ft 10 kts 179°
2026-05-05 23:27 41.27525 28.72976 341 ft 10 kts 180°
2026-05-05 23:27 41.27454 28.72975 341 ft 10 kts 180°
2026-05-05 23:27 41.27381 28.72979 341 ft 10 kts 178°
2026-05-05 23:27 41.27300 28.72982 341 ft 12 kts 179°
2026-05-05 23:28 41.27205 28.72987 341 ft 14 kts 179°
2026-05-05 23:28 41.27101 28.72989 341 ft 15 kts 178°
2026-05-05 23:28 41.26989 28.72994 341 ft 16 kts 178°
2026-05-05 23:28 41.26877 28.73026 341 ft 16 kts 129°
2026-05-05 23:29 41.26857 28.73173 341 ft 16 kts 93°
2026-05-05 23:29 41.26825 28.73314 341 ft 16 kts 156°
2026-05-05 23:29 41.26718 28.73362 341 ft 13 kts 149°
2026-05-05 23:29 41.26696 28.73420 341 ft 2 kts 97°
2026-05-05 23:30 41.26695 28.73434 341 ft 0 kts 93°